Lexington Weather

Lexington, Massachusetts, USA

46°F
9/19/2020 8:46am 
  • Lexington Conditions: Clear
  • Temperature: 45.9°F / 7.7°CWarmer 2.7°F than last hour.
  • Dew Point: 36.0°FIncreased 0.6°Fsince last hour.
  • Relative Humidity: 68%Decreased 6.0% since last hour.
  • Wind: Wind from ENE ENE Calm, 10-min avg: 1 mph, gust: 3 mph
  • Barometer: 30.26 inRising 0.02  inHg/hr Rising Slowly
  • Visibility: 10 miles
  • Rain Today: 0.00 in
  •   
Southeast Middlesex County - Special Weather Statement
 - SEE ALL NEARBY ALERTS -

Regional Weather Roundup
for Boston / Norton, MA

        
000
ASUS41 KBOX 180404
RWRBOX

REGIONAL WEATHER ROUNDUP
NATIONAL WEATHER SERVICE BOSTON/NORTON MA
1200 AM EDT FRI SEP 18 2020

NOTE:  "FAIR" INDICATES FEW OR NO CLOUDS BELOW 12,000 FEET WITH NO 
SIGNIFICANT WEATHER AND/OR OBSTRUCTIONS TO VISIBILITY.

MAZALL-180500-
EASTERN MASSACHUSETTS
  
CITY           SKY/WX    TMP DP  RH WIND       PRES   REMARKS
BOSTON         CLOUDY    62  53  72 N10       30.01R                  
BEVERLY        CLOUDY    62  52  69 N7        30.00S                  
LAWRENCE       CLOUDY    61  50  67 NE7       30.03S                  
BEDFORD        CLOUDY    62  48  60 NE6       30.00S                  
BLUE HILL        N/A     60  53  77 NE14G22   29.99F                  
NORWOOD        CLOUDY    64  54  69 N6        30.00S                  
MARSHFIELD     CLOUDY    64  64 100 VRB6      29.98S                  
PLYMOUTH       CLOUDY    63  62  97 NW3       29.98S                  
TAUNTON        CLOUDY    64  61  90 N5        29.98S                  
NEW BEDFORD    CLOUDY    64  63  96 N3        29.97S                  
$$

MAZALL-180500-
CAPE COD AND THE ISLANDS
  
CITY           SKY/WX    TMP DP  RH WIND       PRES   REMARKS
FALMOUTH       CLOUDY    64  64 100 CALM      29.98S                  
HYANNIS        CLOUDY    67  66  97 CALM      29.97S                  
CHATHAM        CLOUDY    68  66  93 SW3       29.99S                  
PROVINCETOWN   CLOUDY    63  62  97 SW3       29.98S                  
NANTUCKET      CLOUDY    66  63  90 SW3       29.98S                  
MARTHAS VNYRD  CLOUDY    64  63  96 CALM      29.98S                  
$$
 
MAZALL-180500-
CENTRAL AND WESTERN MASSACHUSETTS
  
CITY           SKY/WX    TMP DP  RH WIND       PRES   REMARKS
WORCESTER      CLOUDY    59  52  77 NE7       30.02S                  
FITCHBURG      CLOUDY    61  51  70 NW3       30.03R                  
ORANGE         CLOUDY    57  53  86 NW5       30.03F                  
SPRINGFIELD    CLOUDY    59  52  78 N3        30.00S                  
WESTFIELD      CLOUDY    60  52  74 N10       30.01S                  
NORTH ADAMS    CLOUDY    59  55  87 CALM      30.03S                  
PITTSFIELD     CLOUDY    59  55  87 W5        30.01S                  
$$
 
RIZALL-180500-
RHODE ISLAND
  
CITY           SKY/WX    TMP DP  RH WIND       PRES   REMARKS
PROVIDENCE     CLOUDY    66  61  84 N8        29.98S                  
NEWPORT        CLOUDY    65  63  93 CALM      29.97F                  
BLOCK ISLAND   CLOUDY    68  65  90 SW3       29.98F                  
SMITHFIELD     CLOUDY    62  57  83 N7        30.00S                  
WESTERLY       CLOUDY    64  61  90 CALM      29.97F                  
$$
 
CTZALL-180500-
CONNECTICUT
  
CITY           SKY/WX    TMP DP  RH WIND       PRES   REMARKS
BRADLEY INTL   CLOUDY    60  53  77 N8        30.00S                  
HARTFORD       CLOUDY    65  55  70 N5        29.99R                  
BRIDGEPORT     CLOUDY    68  65  90 N6        29.96F                  
DANBURY        CLOUDY    60  59  96 CALM      29.99F                  
GROTON         CLOUDY    64  62  93 N5        29.96F                  
NEW HAVEN      CLOUDY    67  66  97 CALM      29.96F                  
CHESTER        NOT AVBL                                               
MERIDEN        CLOUDY    65  60  84 N8        29.98S                  
WILLIMANTIC    CLOUDY    62  59  90 CALM      29.99S                  
OXFORD         CLOUDY    61  61 100 NE6       29.99F                  
$$

MEZ002-015-021-024-NHZ003-005-008-011-012-014-VTZ005-008-180500-
NORTHERN NEW ENGLAND
  
CITY           SKY/WX    TMP DP  RH WIND       PRES   REMARKS
PORTLAND ME    CLOUDY    61  51  70 N9        30.03F                  
BANGOR ME      CLOUDY    57  35  43 N9        30.06R                  
CONCORD NH     CLOUDY    60  50  69 CALM      30.03S                  
MANCHESTER NH  CLOUDY    64  49  57 N6        30.01S                  
NASHUA NH      CLOUDY    62  53  72 VRB3      30.03S                  
PORTSMOUTH NH  MOCLDY    62  47  58 N6        30.01S                  
JAFFREY NH     CLOUDY    58  49  72 VRB3      30.04S                  
KEENE NH       CLOUDY    58  53  84 N6        30.03F                  
BURLINGTON VT  MOCLDY    50  46  86 CALM      30.09R                  
MT. WASHINGTON NOT AVBL                                               
$$

NYZ052-076-180500-
EASTERN NEW YORK
  
CITY           SKY/WX    TMP DP  RH WIND       PRES   REMARKS
ALBANY         LGT RAIN  54  53  97 N6        30.04F                  
NEW YORK CITY  CLOUDY    72  65  78 E3        29.94F                  
$$
 
ANZALL-180500-
MARINE OBSERVATIONS
  
STATION/POSITION TIME  TEMP    WIND        PRES    VSBY  WAVE
                       AIR SEA DIR/SP/G                  HT/PER
                 (UTC) (F)     (DEG/KT/KT) (MB)    (MI)  (FT/S)
BOSTON BUOY      0350   64 65   30/ 16/ 19 1013.8S         3/11
BUZZARDS BAY     0300          200/  2/  2 1016.2F
NANTUCKET SOUND  0340      70  210/  4/  6   N/A
MASS BAY-STELLWA 0304   63      70/ 16/ 19 1013.1F  1 7/8  3/ 3
ISLE OF SHOALS   0300   61      30/ 16/ 17 1015.5F
S OF BLOCK IS    0326      70                N/A           3/11
$$

......................KEY.........................
  SKY/WX - SKY CONDITION/PRESENT WEATHER
  TMP    - TEMPERATURE IN FAHRENHEIT
  DWPT   - DEWPOINT IN FAHRENHEIT
  RH     - RELATIVE HUMIDITY IN PERCENT
  WIND   - DIRECTION AND SPEED IN MPH
  PRES   - MEAN SEA LEVEL PRESSURE IN INCHES OF HG
  WCI    - WIND CHILL INDEX
  VSB    - VISIBILITY IN MILES
  HX     - HEAT INDEX
  TC     - TEMPERATURE IN CELSIUS
  VRB    - VARIABLE WIND DIRECTION
  N/A    - NOT AVAILABLE
  
      

Other recent Regional Weather Roundups

Sat Sep 19, 8:04am

Sat Sep 19, 7:04am

Sat Sep 19, 6:04am

Sat Sep 19, 5:04am

Sat Sep 19, 4:04am

Sat Sep 19, 3:04am

Sat Sep 19, 2:04am

Sat Sep 19, 1:04am

Sat Sep 19, 12:04am

Fri Sep 18, 11:05pm

Fri Sep 18, 10:04pm

Fri Sep 18, 9:04pm

Fri Sep 18, 8:04pm

Fri Sep 18, 7:04pm

Fri Sep 18, 6:04pm

Fri Sep 18, 5:05pm

Fri Sep 18, 4:04pm

Fri Sep 18, 3:05pm

Fri Sep 18, 2:04pm

Fri Sep 18, 1:04pm

Fri Sep 18, 12:04pm

Fri Sep 18, 11:05am

Fri Sep 18, 10:05am

Fri Sep 18, 9:04am

Fri Sep 18, 8:04am

Fri Sep 18, 7:04am

Fri Sep 18, 6:04am

Fri Sep 18, 5:04am

Fri Sep 18, 4:04am

Fri Sep 18, 3:04am

Fri Sep 18, 2:04am

Fri Sep 18, 1:04am

Thu Sep 17, 11:05pm

Thu Sep 17, 10:04pm

Thu Sep 17, 9:04pm

Thu Sep 17, 8:05pm

Thu Sep 17, 7:04pm

Thu Sep 17, 6:04pm

Thu Sep 17, 5:04pm

Thu Sep 17, 4:04pm

Thu Sep 17, 3:05pm

Thu Sep 17, 2:04pm

Thu Sep 17, 1:04pm

Thu Sep 17, 12:04pm

Thu Sep 17, 11:04am

Thu Sep 17, 10:04am

Thu Sep 17, 9:04am

Thu Sep 17, 8:04am

Thu Sep 17, 7:04am

Thu Sep 17, 6:04am

Thu Sep 17, 5:04am

Thu Sep 17, 4:04am

Thu Sep 17, 3:04am

Thu Sep 17, 2:05am

Thu Sep 17, 1:05am

Thu Sep 17, 12:04am

Wed Sep 16, 11:04pm

Wed Sep 16, 10:04pm

Wed Sep 16, 9:04pm

Wed Sep 16, 8:05pm

Wed Sep 16, 7:04pm

Wed Sep 16, 6:04pm

Wed Sep 16, 5:04pm

Wed Sep 16, 4:04pm

Wed Sep 16, 3:04pm

Wed Sep 16, 2:04pm

Wed Sep 16, 1:04pm

Wed Sep 16, 12:04pm

Wed Sep 16, 11:04am

Wed Sep 16, 10:04am

Wed Sep 16, 9:04am

Wed Sep 16, 8:04am

Wed Sep 16, 7:04am

Wed Sep 16, 6:04am

Wed Sep 16, 5:04am

Wed Sep 16, 4:04am

Wed Sep 16, 3:04am

Wed Sep 16, 2:04am

Wed Sep 16, 1:04am

Wed Sep 16, 12:05am

Tue Sep 15, 11:04pm

Tue Sep 15, 10:04pm

Tue Sep 15, 9:04pm

Tue Sep 15, 8:04pm

Tue Sep 15, 7:04pm

Tue Sep 15, 6:04pm

Tue Sep 15, 5:04pm

Tue Sep 15, 4:05pm

Tue Sep 15, 3:04pm

Tue Sep 15, 2:04pm

Tue Sep 15, 1:04pm

Tue Sep 15, 12:04pm

Tue Sep 15, 11:04am

Tue Sep 15, 10:04am

Tue Sep 15, 9:04am

Tue Sep 15, 8:04am

Tue Sep 15, 7:04am

Tue Sep 15, 6:04am

Tue Sep 15, 5:04am

Tue Sep 15, 4:04am

Tue Sep 15, 3:04am

Tue Sep 15, 2:04am

Tue Sep 15, 1:04am

Tue Sep 15, 12:05am

Mon Sep 14, 11:04pm

Mon Sep 14, 10:04pm

Mon Sep 14, 9:04pm

Mon Sep 14, 8:04pm

Mon Sep 14, 7:04pm

Mon Sep 14, 6:04pm

Mon Sep 14, 5:04pm

Mon Sep 14, 4:05pm

Mon Sep 14, 3:04pm

Mon Sep 14, 2:05pm

Mon Sep 14, 1:04pm

Mon Sep 14, 12:04pm

Mon Sep 14, 11:04am

Mon Sep 14, 10:05am

Mon Sep 14, 9:04am

Mon Sep 14, 8:04am

Mon Sep 14, 7:04am

Mon Sep 14, 6:04am

Mon Sep 14, 5:04am

Mon Sep 14, 4:04am

Mon Sep 14, 3:04am

Mon Sep 14, 2:04am

Mon Sep 14, 1:04am

Mon Sep 14, 12:04am

Sun Sep 13, 11:05pm

Sun Sep 13, 10:04pm

Sun Sep 13, 9:04pm

Sun Sep 13, 8:04pm

Sun Sep 13, 7:05pm

Sun Sep 13, 6:05pm

Sun Sep 13, 5:05pm

Sun Sep 13, 4:04pm

Sun Sep 13, 3:04pm

Sun Sep 13, 2:04pm

Sun Sep 13, 1:04pm

Sun Sep 13, 12:04pm

Sun Sep 13, 11:05am

Sun Sep 13, 10:04am

Sun Sep 13, 9:04am

Sun Sep 13, 8:04am

Sun Sep 13, 7:04am

Sun Sep 13, 6:04am

Sun Sep 13, 5:04am

Sun Sep 13, 4:04am

Sun Sep 13, 3:04am

Sun Sep 13, 2:04am

Sun Sep 13, 1:04am

Sun Sep 13, 12:04am

Sat Sep 12, 11:04pm

Sat Sep 12, 10:04pm

Sat Sep 12, 9:04pm

Sat Sep 12, 8:04pm

Sat Sep 12, 7:05pm

Sat Sep 12, 6:04pm

Sat Sep 12, 5:04pm

Sat Sep 12, 4:05pm

Sat Sep 12, 3:04pm

Sat Sep 12, 2:04pm

Sat Sep 12, 1:05pm

Sat Sep 12, 12:04pm

Sat Sep 12, 11:04am

Sat Sep 12, 10:04am

Sat Sep 12, 9:04am

Meta data:

ID: 9e8539e5-7416-4518-972a-2ae44debf094
Link: https://api.weather.gov/products/9e8539e5-7416-4518-972a-2ae44debf094